Location: Augsburg
(48.3836°N, 10.8929°E)
Time: 08:26:05
(UTC+01:00)

ISS - Pass Details

Date: 09 January 2018
Orbit: 402 x 407 km, 51.6° (Epoch: 24 January)

Event Time Altitude Azimuth Distance (km) Brightness Sun altitude
Exits shadow 05:48:13 42° 46° (NE) 593 -2.8 -22.1°
Drops below altitude 10° 05:50:50 10° 85° (E) 1,470 0.1 -21.6°
Sets 05:52:57 0° 91° (E) 2,330 1.5 -21.3°
